Location: Kosice
(0.0000°N, 21.2500°E)
Time: 05:58:02
(UTC+01:00)

YAOGAN 1 - Pass Details

Date: 24 January 2021
Orbit: 618 x 620 km, 97.9° (Epoch: 04 March)

Event Time Altitude Azimuth Distance (km) Brightness Sun altitude
Rises 18:47:53 0° 170° (S) 2,893 6.1 -14.3°
Reaches altitude 10° 18:50:05 10° 171° (S) 1,985 5.3 -14.8°
Maximum altitude 18:54:24 83° 257° (WSW) 628 2.6 -15.9°
Drops below altitude 10° 18:58:42 10° 346° (NNW) 1,977 5.1 -16.9°
Sets 19:00:53 0° 347° (NNW) 2,879 5.9 -17.4°
